Change the Weather History Date:

Sunday, March 10, 2013

  Actual Average (KEFC) Record (KEFC)
Temperature  
Mean Temperature 30 °F -  
Max Temperature 42 °F 50 °F 82 °F (1972)
Min Temperature 17 °F 21 °F -18 °F (1948)
Degree Days  
Heating Degree Days 36    
Moisture  
Dew Point 11 °F    
Average Humidity 54    
Maximum Humidity 93    
Minimum Humidity 18    
Precipitation  
Precipitation 0.00 in - - ()
Sea Level Pressure  
Sea Level Pressure 30.09 in    
Wind  
Wind Speed 11 mph (WNW)    
Max Wind Speed 18 mph    
Max Gust Speed 26 mph    
Visibility 10 miles    
Events      
Averages and records for this station are not official NWS values.
T = Trace of Precipitation, MM = Missing Value Source: NWS Daily Summary

Daily Weather History Graph

Daily Weather History Graph

Search for Another Location

Airport or City:

Trip Planner

Search our weather history database for the weather conditions in past years. The results will help you decide how hot, cold, wet, or windy it might be!

Date:

Astronomy

Mar. 10, 2013 Rise Set
Actual Time 8:16 AM CDT 7:55 PM CDT
Civil Twilight 7:47 AM CDT 8:24 PM CDT
Nautical Twilight 7:13 AM CDT 8:58 PM CDT
Astronomical Twilight 6:39 AM CDT 9:32 PM CDT
Moon 7:18 AM CDT (3/10) 7:05 PM CDT (3/10)
Length of Visible Light 12h 37m
Length of Day
11h 39m
Waning Crescent, 2% of the Moon is Illuminated
Mar 10
Waning Crescent
Mar 11
New
Mar 19
First Quarter
Mar 27
Full
Apr 2
Last Quarter

Hourly Weather History & Observations

Time (CDT) Temp. Windchill Dew Point Humidity Pressure Visibility Wind Dir Wind Speed Gust Speed Precip Events Conditions
12:15 AM 24.8 °F 13.4 °F 21.2 °F 86% 30.12 in 10.0 mi NW 12.7 mph - N/A   Overcast
12:35 AM 24.8 °F 12.4 °F 21.2 °F 86% 30.13 in 10.0 mi NW 15.0 mph 21.9 mph N/A   Overcast
12:55 AM 24.8 °F 11.9 °F 21.2 °F 86% 30.13 in 10.0 mi NW 16.1 mph 24.2 mph N/A   Mostly Cloudy
1:15 AM 24.8 °F 12.4 °F 19.4 °F 80% 30.13 in 10.0 mi NW 15.0 mph 20.7 mph N/A   Scattered Clouds
1:35 AM 24.8 °F 11.5 °F 19.4 °F 80% 30.13 in 10.0 mi NW 17.3 mph 26.5 mph N/A   Partly Cloudy
1:55 AM 23.0 °F 8.7 °F 19.4 °F 86% 30.14 in 10.0 mi NW 18.4 mph 24.2 mph N/A   Mostly Cloudy
3:15 AM 23.0 °F 10.6 °F 17.6 °F 80% 30.14 in 10.0 mi NW 13.8 mph 19.6 mph N/A   Overcast
3:35 AM 23.0 °F 11.1 °F 17.6 °F 80% 30.13 in 10.0 mi NW 12.7 mph 19.6 mph N/A   Overcast
3:55 AM 23.0 °F 10.1 °F 17.6 °F 80% 30.13 in 10.0 mi NW 15.0 mph 18.4 mph N/A   Mostly Cloudy
4:15 AM 23.0 °F 10.6 °F 17.6 °F 80% 30.13 in 10.0 mi NW 13.8 mph - N/A   Overcast
4:35 AM 23.0 °F 10.1 °F 17.6 °F 80% 30.13 in 10.0 mi NW 15.0 mph 19.6 mph N/A   Overcast
4:55 AM 21.2 °F 10.1 °F 17.6 °F 86% 30.14 in 10.0 mi NW 10.4 mph - N/A   Overcast
5:15 AM 21.2 °F 9.5 °F 17.6 °F 86% 30.14 in 10.0 mi NW 11.5 mph 16.1 mph N/A   Overcast
5:35 AM 21.2 °F 9.5 °F 17.6 °F 86% 30.15 in 10.0 mi NW 11.5 mph - N/A   Overcast
5:55 AM 19.4 °F 7.9 °F 17.6 °F 93% 30.16 in 10.0 mi NW 10.4 mph - N/A   Mostly Cloudy
6:35 AM 19.4 °F 9.5 °F 17.6 °F 93% 30.17 in 10.0 mi West 8.1 mph - N/A   Mostly Cloudy
6:55 AM 19.4 °F 8.6 °F 15.8 °F 86% 30.17 in 10.0 mi WNW 9.2 mph - N/A   Mostly Cloudy
7:15 AM 19.4 °F 7.9 °F 15.8 °F 86% 30.17 in 10.0 mi WNW 10.4 mph - N/A   Mostly Cloudy
7:35 AM 19.4 °F 10.4 °F 15.8 °F 86% 30.17 in 10.0 mi WNW 6.9 mph - N/A   Mostly Cloudy
7:55 AM 19.4 °F 9.5 °F 15.8 °F 86% 30.18 in 10.0 mi WNW 8.1 mph - N/A   Mostly Cloudy
8:15 AM 17.6 °F 8.2 °F 15.8 °F 93% 30.18 in 10.0 mi NW 6.9 mph - N/A   Scattered Clouds
8:35 AM 19.4 °F 10.4 °F 15.8 °F 86% 30.18 in 10.0 mi West 6.9 mph - N/A   Scattered Clouds
8:55 AM 19.4 °F 10.4 °F 15.8 °F 86% 30.19 in 10.0 mi West 6.9 mph - N/A   Clear
9:15 AM 21.2 °F 12.6 °F 15.8 °F 80% 30.19 in 10.0 mi West 6.9 mph - N/A   Clear
9:35 AM 23.0 °F 13.1 °F 15.8 °F 74% 30.19 in 10.0 mi WNW 9.2 mph - N/A   Clear
9:55 AM 24.8 °F 14.0 °F 15.8 °F 69% 30.19 in 10.0 mi WNW 11.5 mph - N/A   Clear
10:15 AM 24.8 °F 13.4 °F 14.0 °F 64% 30.19 in 10.0 mi West 12.7 mph - N/A   Clear
10:35 AM 26.6 °F 15.7 °F 12.2 °F 55% 30.20 in 10.0 mi WNW 12.7 mph - N/A   Clear
10:55 AM 26.6 °F 16.2 °F 10.4 °F 51% 30.20 in 10.0 mi WNW 11.5 mph - N/A   Clear
11:15 AM 26.6 °F 15.7 °F 10.4 °F 51% 30.20 in 10.0 mi WNW 12.7 mph - N/A   Clear
11:35 AM 28.4 °F 17.5 °F 12.2 °F 51% 30.19 in 10.0 mi WNW 13.8 mph - N/A   Clear
11:55 AM 28.4 °F 19.7 °F 12.2 °F 51% 30.18 in 10.0 mi NW 9.2 mph - N/A   Clear
12:15 PM 30.2 °F 21.9 °F 10.4 °F 44% 30.16 in 10.0 mi NW 9.2 mph - N/A   Clear
12:35 PM 32.0 °F 24.8 °F 8.6 °F 38% 30.14 in 10.0 mi WSW 8.1 mph - N/A   Clear
12:55 PM 32.0 °F 22.5 °F 6.8 °F 35% 30.14 in 10.0 mi WNW 12.7 mph - N/A   Clear
1:15 PM 32.0 °F 21.6 °F 6.8 °F 35% 30.14 in 10.0 mi NNW 15.0 mph 18.4 mph N/A   Clear
1:35 PM 33.8 °F 27.0 °F 6.8 °F 32% 30.13 in 10.0 mi WNW 8.1 mph - N/A   Clear
1:55 PM 35.6 °F 26.6 °F 5.0 °F 28% 30.12 in 10.0 mi WNW 13.8 mph 18.4 mph N/A   Clear
2:15 PM 37.4 °F 30.3 °F 6.8 °F 28% 30.12 in 10.0 mi WNW 10.4 mph 19.6 mph N/A   Clear
2:35 PM 37.4 °F 29.8 °F 5.0 °F 26% 30.10 in 10.0 mi West 11.5 mph 24.2 mph N/A   Clear
2:55 PM 37.4 °F 29.3 °F 5.0 °F 26% 30.08 in 10.0 mi NW 12.7 mph 20.7 mph N/A   Clear
3:15 PM 39.2 °F 33.6 °F 3.2 °F 22% 30.07 in 10.0 mi WNW 8.1 mph 17.3 mph N/A   Clear
3:35 PM 39.2 °F 32.0 °F 5.0 °F 24% 30.05 in 10.0 mi NW 11.5 mph - N/A   Clear
3:55 PM 41.0 °F 35.8 °F 3.2 °F 21% 30.05 in 10.0 mi WNW 8.1 mph - N/A   Clear
4:15 PM 41.0 °F 34.7 °F 1.4 °F 19% 30.05 in 10.0 mi WNW 10.4 mph - N/A   Clear
4:35 PM 41.0 °F 35.8 °F 1.4 °F 19% 30.05 in 10.0 mi WNW 8.1 mph - N/A   Clear
4:55 PM 41.0 °F 34.7 °F 1.4 °F 19% 30.04 in 10.0 mi NNW 10.4 mph - N/A   Clear
5:15 PM 42.8 °F 37.0 °F 3.2 °F 19% 30.03 in 10.0 mi NNW 10.4 mph - N/A   Clear
5:35 PM 42.8 °F 38.0 °F 1.4 °F 18% 30.04 in 10.0 mi NNW 8.1 mph - N/A   Clear
5:55 PM 41.0 °F 35.8 °F 3.2 °F 21% 30.04 in 10.0 mi NW 8.1 mph - N/A   Clear
6:15 PM 41.0 °F 35.2 °F 3.2 °F 21% 30.03 in 10.0 mi NNW 9.2 mph - N/A   Clear
6:35 PM 41.0 °F 36.4 °F 5.0 °F 23% 30.03 in 10.0 mi NNW 6.9 mph - N/A   Clear
6:55 PM 39.2 °F 34.2 °F 5.0 °F 24% 30.03 in 10.0 mi North 6.9 mph - N/A   Clear
7:15 PM 37.4 °F - 5.0 °F 26% 30.02 in 10.0 mi Calm Calm - N/A   Clear
7:35 PM 37.4 °F - 3.2 °F 24% 30.02 in 10.0 mi Calm Calm - N/A   Clear
7:55 PM 32.0 °F 26.4 °F 10.4 °F 41% 30.01 in 10.0 mi South 5.8 mph - N/A   Clear
8:15 PM 30.2 °F 23.4 °F 10.4 °F 44% 30.01 in 10.0 mi South 6.9 mph - N/A   Clear
8:55 PM 30.2 °F 22.6 °F 10.4 °F 44% 30.00 in 10.0 mi SSW 8.1 mph - N/A   Clear
9:15 PM 28.4 °F 23.3 °F 8.6 °F 43% 30.00 in 10.0 mi SW 4.6 mph - N/A   Clear
9:35 PM 28.4 °F - 8.6 °F 43% 30.00 in 10.0 mi Calm Calm - N/A   Clear
9:55 PM 28.4 °F 21.2 °F 10.4 °F 47% 29.99 in 10.0 mi SSW 6.9 mph - N/A   Clear
10:15 PM 28.4 °F - 10.4 °F 47% 29.98 in 10.0 mi Calm Calm - N/A   Clear
10:35 PM 28.4 °F - 10.4 °F 47% 29.98 in 10.0 mi Calm Calm - N/A   Clear
10:55 PM 26.6 °F 20.0 °F 10.4 °F 51% 29.97 in 10.0 mi West 5.8 mph - N/A   Clear
11:15 PM 30.2 °F 25.4 °F 10.4 °F 44% 29.96 in 10.0 mi West 4.6 mph - N/A   Clear
11:35 PM 30.2 °F 25.4 °F 12.2 °F 47% 29.95 in 10.0 mi WSW 4.6 mph - N/A   Clear
11:55 PM 32.0 °F 27.5 °F 10.4 °F 41% 29.94 in 10.0 mi West 4.6 mph - N/A   Clear
12:15 AM 32.0 °F - 10.4 °F 41% 29.93 in 10.0 mi Calm Calm - N/A   Clear
12:35 AM 32.0 °F 28.7 °F 12.2 °F 44% 29.92 in 10.0 mi SW 3.5 mph - N/A   Clear